Погода в Ореле

Погода в Ореле : погода сейчас, прогноз погоды и архив. Всё, что Вы хотите узнать о погоде в Ореле!

Хотите узнать прогноз погоды в Ореле? Тогда Вам сюда: Погода в Ореле

Поиск расширенной информации на нашем сайте:

Другие новости

Новости СМИ2

Главная страница сайта

Новости сайта

03.07.2017

Напоминаем, что на нашем специализированном сайте Метеоцентр.Азия вы можете получить высокодетализированные автоматические прогнозы погоды по пунктам России, СНГ и мира в авиационном формате (включающие направление и скорость ветра, видимость, явления погоды, количество и форму облачности, нижнюю и верхнюю границу облачности).


Погода в Ореле - сегодня

Время (UTC), дата Ветер
(°,м/с) 
Видим.   Явления Облачность Т
(°С)
Тd
(°С)
f(%) Тe
(°С)
Pmin
(гПа)
dP
(гПа)
Po
(мм)
O2
(г/м3)
Тmin Tmax R s Состояние
почвы
15 18.10.17 220 (ЮЗ) 10 км    6/0 верхняя 
[Ci fib]
+14 +11.2 83 +18  1011.2  -1.1  741  282      0.0     
18 18.10.17 240 (ЮЗ) 10 км  {ливн. осадки}  10/4 600 м кучево-дожд., средняя 
[Cb calv|As op]
+14 +11.2 83 +18  1011.4  0.2  741  282    +15.2  0.0     
21 18.10.17 290 (З) 10 км    10/3 600 м кучево-дожд., средняя 
[Cb calv|As op]
+12.7 +10.7 88 +16  1011.8  0.3  741  283           
00 19.10.17 290 (З) 10 км    3/0 верхняя 
[Ci fib]
+9 +7.7 92 +10  1012.5  0.4  742  288           
03 19.10.17 290 (З) 4000 м  дымка  9/9 600 м 
[Sc]
+8.7 +7.8 94 +10  1013.6  1.1  743  289  +6.9    0.0     
06 19.10.17 320 (СЗ) 10 км    9/4 600 м средняя, верхняя 
[Sc|Ac trans|Ci fib]
+9.3 +8.2 93 +10  1015  1.4  744  288  +6.9         
09 19.10.17 340 (С) 10 км    9/5 600 м кучево-дожд., верхняя 
[Cb calv|Ci fib]
+12.5 +8.5 77 +14  1016  1.2  744  285           
12 19.10.17 330 (СЗ) 10 км    8/3 600 м средняя, верхняя 
[Sc|Ac trans|Ci fib]
+12.5 +1.5 47 +14  1016.5  0.5  745  287           
15 19.10.17 тихо ()   10 км    9/3 600 м средняя, верхняя 
[Sc|Ac trans|Ci fib]
+7.9 +2.9 71 +8  1017.6  0.7  745  291           
18 19.10.17 тихо ()   10 км    6/0 средняя 
[Ac trans]
+4.8 +2.1 83 +5  1019  1.1  746  295    +14       
21 19.10.17 330 (СЗ) 10 км    ясно 
+2 +0.9 92 +3  1020.2  0.9  747  299           
00 20.10.17 тихо ()   10 км    ясно 
+0.2 -0.7 94 1021.2  0.7  747  301           
03 20.10.17 тихо ()   4000 м  дымка  6/0 средняя 
[Ac trans]
-0.5 -0.8 98 -1  1021.8  0.5  748  302  -1.2         
06 20.10.17 тихо ()   4000 м  дымка  ясно 
+2.5 +1.2 91 +3  1022.6  1.1  749  299  -1.2         
09 20.10.17 340 (С) 10 км    4/3 600 м верхняя 
[Sc|Ci fib]
+9.1 +0 53 +10  1022.8  0.8  749  292           
12 20.10.17 360 (С) 10 км    8/4 600 м верхняя 
[Sc|Ci fib]
+9.6 -0.9 48 +10  1022.1  -0.7  749  291           
15 20.10.17 тихо ()   10 км    3/3 600 м 
[Sc]
+5.6 +0.5 70 +6  1022.3  749  295           
18 20.10.17 тихо ()   10 км    6/0 средняя 
[Ac trans]
+3 -0.2 79 +3  1022.9  0.4  749  298    +10.6       
21 20.10.17 тихо ()   10 км    ясно 
-0.3 -1.8 90 -0  1023.1  -0.2  749  302           
00 21.10.17 тихо ()   10 км    ясно 
-1.9 -3 92 -2  1023  -0.2  749  304           
03 21.10.17 290 (З) 10 км    5/3 600 м средняя, верхняя 
[Sc|Ac trans|Ci fib]
-2 -3.2 91 -1  1022.4  -0.6  748  304  -2.1         
06 21.10.17 тихо ()   4000 м  дымка  8/5 600 м средняя 
[Sc|Ac trans]
+0.5 -0.1 96 +1  1022  -0.2  748  301  -2.2         
09 21.10.17 310 (СЗ) 10 км    9/3 600 м кучево-дожд., средняя, верхняя 
[Cb calv|Ac trans|Ci sp]
+5.5 +0.3 69 +6  1021.6  0.1  748  295           
12 21.10.17 350 (С) 10 км    9/3 300 м верхняя 
[St|Ci sp]
+6.5 +0.4 65 +7  1020.1  -1.3  747  294           
15 21.10.17 тихо ()   10 км    10/3 600 м средняя, верхняя 
[Sc|Ac trans|Cs]
+3.5 -1.5 70 +4  1019.7  -0.7  747  297           
Время (UTC), дата Ветер
(°,м/с) 
Видим.   Явления Облачность Т
(°С)
Тd
(°С)
f(%) Тe
(°С)
Pmin
(гПа)
dP
(гПа)
Po
(мм)
O2
(г/м3)
Тmin Tmax R s Состояние
почвы

Для получения пояснительной информации подведите курсор к названию столбца.

ПОГОДА в Ореле - архив

Всё, что Вы хотите узнать о погоде в Ореле - удобно и подробно!

Выберите нужную дату (начиная с 1 января 2015* года) и нажмите кнопку "Найти".
Будут отображены архивные сводки погоды по пункту Орел, начиная с указанной даты.


Отображать данные в формате CSV (для использования в таблицах Excel)


Внимание! Наш архив погоды предназначен исключительно для личного некоммерческого использования в познавательных целях. Если Вам необходимы официальные справки о состоянии погоды (для производственных, юридических, коммерческих и т.п. целей), обращайтесь в органы Росгидромета.

*Примечание: данная дата относится к архиву по метеостанциям СССР (Россия, СНГ, Балтия).
Архив по метеостанциям Зарубежной Европы и Азии (кроме Китая) хранится 10 дней, по другим регионам земного шара (Китай, Африка, Америка, Австралия, Океания) - 1 день.

Орел - район местоположения метеостанции


Название, широта, долгота, высота метеостанции:
Орел 52.9°ш. 36°д. 196 м над ур. моря [Российская Федерация]

Дополнительная информация

В oтличие oт бoльшинства пoгoдных сайтoв мы публикуем пoдрoбную метеoинфoрмацию в детальнoм прoфессиoнальнoм фoрмате.

Характеристики температуры и влажнoсти вoздуха измеряются на высoте 2 м в тени вдали oт зданий и деревьев.
Скoрoсть ветра измеряется на высoте 10 м (на урoвне рoста челoвека скoрoсть ветра ниже в 1.5-2 раза). Если метеoстанция нахoдится в гoрoде или в лесу, тo скoрoсть ветра занижена на 2-4 м/с пo сравнению с oткрытым местoм. Скoрoсть ветра над акватoриями крупных рек и oзёр, а также на вершинах хoлмoв на 2-5 м/с выше, чем в oбычных услoвиях.
Атмoсфернoе давление в разных тoчках местнoсти мoжет значительнo oтличаться oт давления на метеoстанции, в зависимoсти oт услoвий рельефа (при пoдъёме на 10 м давление пoнижается примернo на 1 мм рт.ст.).